Flag for U.S.A. Weather past 2 weeks in Metairie, Louisiana, U.S.A.

Now
71 °F

Passing clouds.


Feels Like: 76 °F
Forecast: 70 / 83 °F
Wind: 12 mph from Northeast

Location: New Orleans International Airport

Current Time: Sep 23, 2014 at 7:22:13 AM

Latest Report: Sep 23, 2014 at 6:53 AM


Visibility: 10 mi

Pressure: 30.08 "Hg

Humidity: 61%

Dew point: 57 °F

Location of MetairieLocation

Historic Weather in Metairie — Graph

°F

Metairie temperature yesterday

Maximum temperature yesterday: 90 °F (at 2:53 PM)
Minimum temperature yesterday: 73 °F (at 4:53 AM)
Average temperature yesterday: 81 °F

Past Weeks' High & Low Weather Summary

 TemperatureHumidityPressure
High93 °F (Sep 9, 2:53 PM)94% (Sep 16, 12:53 AM)30.14 "Hg (Sep 16, 12:53 AM)
Low71 °F (Sep 23, 5:53 AM)44% (Sep 22, 7:53 PM)29.86 "Hg (Sep 18, 3:53 PM)
Average81 °F74%30.00 "Hg
* Reported Sep 8 5:53 AM — Sep 23 5:53 AM, Metairie, Weather by CustomWeather, © 2014

Note: Actual official high and low records may vary slightly from our data, if they occured in-between our weather recording intervals... More about our weather records

Advertising

Metairie weather history for previous 24 hours

 ConditionsComfort  
Time TempWeatherWind HumidityBarometerVisibility
5:53 AM
Sep 23
71 °FClear.15 mph59%30.07 "Hg10 mi
4:53 AM72 °FClear.14 mph57%30.06 "Hg10 mi
3:53 AM72 °FClear.16 mph57%30.05 "Hg10 mi
2:53 AM74 °FClear.17 mph52%30.05 "Hg10 mi
1:53 AM74 °FPassing clouds.17 mph56%30.05 "Hg10 mi
12:53 AM76 °FClear.15 mph50%30.05 "Hg10 mi
11:53 PM
Sep 22
78 °FClear.17 mph46%30.05 "Hg10 mi
10:53 PM79 °FClear.20 mph45%30.06 "Hg10 mi
9:53 PM80 °FClear.22 mph44%30.05 "Hg10 mi
8:53 PM81 °FClear.21 mph44%30.04 "Hg10 mi
7:53 PM83 °FPassing clouds.21 mph44%30.02 "Hg10 mi
6:53 PM84 °FScattered clouds.16 mph53%29.99 "Hg10 mi
5:53 PM86 °FScattered clouds.16 mph55%29.98 "Hg10 mi
4:53 PM88 °FScattered clouds.18 mph55%29.97 "Hg10 mi
3:53 PM86 °FScattered clouds.12 mph61%29.97 "Hg10 mi
2:53 PM90 °FPassing clouds.12 mph54%29.98 "Hg10 mi
1:53 PM89 °FPassing clouds.12 mph53%30.00 "Hg10 mi
12:53 PM89 °FPassing clouds.8 mph50%30.03 "Hg10 mi
11:53 AM89 °FPassing clouds.8 mph48%30.05 "Hg10 mi
10:53 AM87 °FPassing clouds.7 mph55%30.06 "Hg10 mi
9:53 AM84 °FPassing clouds.9 mph61%30.05 "Hg10 mi
8:53 AM82 °FPassing clouds.7 mph67%30.05 "Hg10 mi
7:53 AM77 °FPassing clouds.No wind88%30.04 "Hg7 mi
Weather by CustomWeather, © 2014

See weather overviewHow to use our weather pages